www.pogodaiklimat.ru

Погода и климат >> Архив погоды >> Украина >> Харьков


АРХИВ ПОГОДЫ в Харькове

Время (UTC), дата Ветер
(напр.,м/с)
 
Видим.   Явления Облачность Т
(С)
Тd
(С)
f
(%)
Тe
(С)
Тes
(С)
Комфортность P
(гПа)
Po
(гПа)
Тmin
(С)
Tmax
(С)
R
(мм)
S
(см)
12 18.02 ЮЗ 6 10 км 10/10 300 м
[Sc]
+1.4 -0.5 87 -5 -5 по сезону 1019.7 1000.3
15 18.02 ЮЗ 5 10 км 10/10 210 м
[Sc]
+1.2 +0.1 92 -5 -5 по сезону 1020.0 1000.6
18 18.02 ЮЗ 3 10 км 10/10 270 м
[St]
+1.0 -0.1 92 -4 -4 по сезону 1020.6 1001.2 +1.8
21 18.02 ЮЗ 4 10 км 10/10 240 м
[St]
+1.1 -0.0 92 -4 -4 тепло 1021.5 1002.1
00 19.02 ЮЗ 4 5000 м дымка 10/10 150 м
[St]
+1.0 +0.2 94 -4 -4 тепло 1022.1 1002.6
03 19.02 З 3 3200 м дымка 10/10 120 м
[St]
+0.7 +0.1 96 -4 -4 тепло 1022.9 1003.4
06 19.02 ЮЗ 3 1600 м дымка 10/10 90 м
[St]
+0.8 +0.2 96 -4 -4 тепло 1024.2 1004.7 +0.7 27
09 19.02 З 3 3800 м дымка 10/10 180 м
[St]
+1.4 +0.6 94 -3 -3 тепло 1025.0 1005.5
12 19.02 ЮЗ 4 10 км 9/9 600 м
[Sc]
+3.2 -0.6 76 -1 -1 тепло 1024.1 1004.8
15 19.02 ЮЗ 4 5000 м дымка 9/9 1000 м
[Sc]
+1.8 +0.2 89 -3 -3 по сезону 1024.0 1004.6
18 19.02 ЮЗ 4 4000 м дымка 8/8 840 м
[Sc]
+1.0 -0.4 90 -4 -4 по сезону 1024.1 1004.6 +3.5
21 19.02 Ю 3 10 км ясно 0.0 -1.8 88 -5 -5 по сезону 1023.5 1003.9
00 20.02 ЮЗ 4 10 км ясно -1.6 -2.7 92 -8 -8 по сезону 1023.0 1003.3
03 20.02 З 5 4000 м дымка 9/9 180 м
[St]
-1.2 -2.2 93 -8 -8 по сезону 1022.3 1002.7
06 20.02 ЮЗ 3 5000 м дымка 10/10 210 м
[St]
-0.9 -1.9 93 -6 -6 по сезону 1022.1 1002.5 -2.5 25
09 20.02 ЮЗ 4 10 км 5/5 600 м
[Sc]
+2.0 -1.1 80 -3 -1 тепло 1021.3 1001.9
12 20.02 ЮЗ 6 10 км 8/8 400 м
[Sc]
+2.0 -0.5 83 -4 -4 по сезону 1019.5 1000.2
15 20.02 ЮЗ 4 10 км 3/0
[Ci fib]
+1.8 -1.6 78 -3 -3 по сезону 1017.4 998.1
18 20.02 ЮЗ 4 10 км 4/0
[Ci fib]
-0.4 -2.8 84 -6 -6 по сезону 1016.6 997.1 +2.8
21 20.02 Ю 3 5000 м дымка ясно -1.0 -2.3 91 -6 -6 по сезону 1014.6 995.1
00 21.02 ЮЗ 4 3900 м дымка 10/10 180 м
[Sc]
-0.6 -1.2 96 -6 -6 по сезону 1012.3 992.9
03 21.02 Ю 4 2200 м дымка 10/10 90 м
[St]
+0.6 +0.1 96 -5 -5 по сезону 1009.1 989.9
06 21.02 Ю 4 1200 м дымка 10/10 90 м
[St]
+0.5 +0.2 98 -5 -5 по сезону 1007.5 988.3 -1.6 23
09 21.02 Ю 5 5000 м дымка 10/10 180 м
[Sc]
+1.5 +0.4 92 -4 -4 по сезону 1005.5 986.4
12 21.02 Ю 6 3200 м в посл. час морось 10/10 120 м
[St]
+1.5 +1.0 96 -5 -5 по сезону 1003.2 984.1
15 21.02 Ю 6 5000 м дымка 10/10 150 м
[St]
+1.6 +0.8 94 -5 -5 по сезону 1002.0 983.0
18 21.02 ЮЗ 6 4000 м дымка 10/10 240 м
[Sc]
+1.6 +0.3 91 -5 -5 по сезону 1001.2 982.2 +1.8 0.0
21 21.02 Ю 6 2200 м в посл. час ливневой снег 10/10 90 м
[Cb cap]
+0.9 +0.4 96 -6 -6 по сезону 1000.1 981.1
00 22.02 ЮЗ 5 2800 м слабый ливневой снег 10/10 120 м
[Cb cap]
+0.7 +0.2 96 -5 -5 по сезону 999.0 980.0
03 22.02 ЮЗ 6 4000 м дымка {ливн. осадки} 10/10 90 м
[Cb cap]
+0.8 +0.3 96 -6 -6 по сезону 998.6 979.6
06 22.02 ЮЗ 5 2700 м в посл. час дождь {ливн. осадки} 10/10 60 м
[Sc]
+1.3 +0.8 96 -5 -5 по сезону 999.6 980.6 +0.7 2 21
09 22.02 З 4 10 км {ливн. осадки} 10/10 300 м
[Sc]
+2.4 +1.4 93 -3 -3 по сезону 1000.5 981.6
12 22.02 З 5 10 км {ливн. осадки} 9/8 540 м
[Sc Ac trans]
+3.1 +0.2 81 -2 -2 по сезону 1000.8 981.9
15 22.02 З 4 10 км 10/8 660 м
[Sc Ac und]
+2.5 +0.4 86 -2 -2 тепло 1002.3 983.3
18 22.02 З 4 10 км в посл. час дождь 10/10 360 м
[Sc]
+1.9 0.0 87 -3 -3 тепло 1004.1 985.0 +3.6 0.3
21 22.02 ЮЗ 5 10 км 10/10 1020 м
[Sc]
+1.3 -0.3 89 -5 -5 по сезону 1004.2 985.1
00 23.02 ЮЗ 4 10 км 10/10 300 м
[Sc]
+1.0 -0.7 88 -4 -4 тепло 1004.2 985.1
03 23.02 Ю 6 10 км слабый ливневой дождь со снегом 10/10 150 м
[Cb cap]
+0.2 -0.4 96 -7 -7 по сезону 1000.4 981.3
06 23.02 Ю 6 3200 м в посл. час дождь со снегом {ливн. осадки} 10/8 120 м
[Frnb As op]
+1.0 +0.5 96 -6 -6 по сезону 997.6 978.6 +0.2 0.8 17
09 23.02 Ю 5 2400 м слабый ливневой дождь со снегом 10/10 120 м
[Cb cap]
+0.8 0.0 94 -5 -5 по сезону 994.6 975.7
12 23.02 З 7 10 км слабый дождь {ливн. осадки, снег} 10/10 210 м
[Sc]
+2.8 +1.8 93 -4 -4 по сезону 994.4 975.6
15 23.02 З 5 10 км {дождь} 8/8 600 м
[Sc]
+3.0 +0.7 85 -2 -2 по сезону 997.1 978.3
18 23.02 З 6 10 км {дождь} 8/5 600 м
[Sc Ac trans]
+2.7 +0.3 84 -3 -3 по сезону 999.7 980.8 +4.0 4
21 23.02 З 4 10 км 4/0
[Ac trans]
+2.8 -1.3 74 -2 -2 тепло 1002.2 983.2
00 24.02 ЮЗ 5 10 км 3/3 1000 м
[Sc]
+0.4 -1.6 86 -6 -6 по сезону 1004.4 985.2
03 24.02 ЮЗ 2 10 км 6/0
[Ac trans Ci fib]
-0.5 -1.7 92 -4 -4 тепло 1004.8 985.6
06 24.02 Ю 4 10 км слабый ливневой дождь со снегом 10/10 600 м
[Cb cap]
+0.9 -0.2 92 -4 -4 тепло 1004.6 985.5 -1.2 0.0 16
09 24.02 Ю 5 10 км {ливн. осадки} 8/0
[Ac und Ci fib]
+5.2 0.0 69 +1 +3 тепло 1001.9 983.1
12 24.02 Ю 7 10 км {ливн. осадки} 5/0
[Ac trans Ci fib]
+7.3 +0.9 64 +3 +4 тепло 999.3 980.7
15 24.02 ЮЗ 7 10 км 9/4 600 м
[Sc Ac und]
+6.0 +2.1 76 +1 +1 тепло 999.3 980.6
18 24.02 Ю 4 10 км 9/0
[Ac trans]
+4.4 +2.7 89 0 0 тепло 1000.8 982.0 +7.8 0.0
21 24.02 ЮЗ 3 10 км 10/0
[Ac und]
+4.4 +2.7 89 +1 +1 тепло 1001.5 982.7
00 25.02 ЮЗ 4 10 км 9/0
[Ac trans]
+4.5 +2.5 87 0 0 тепло 1002.3 983.5
03 25.02 ЮЗ 6 10 км 9/0
[Ac trans]
+4.2 +0.9 79 -1 -1 тепло 1003.7 984.8
06 25.02 З 7 10 км 9/0
[Ac trans]
+4.8 -0.5 69 -1 -0 тепло 1005.2 986.3 +3.8 10
09 25.02 З 6 10 км слабый ливневой дождь 10/10 360 м
[Cb cap]
+2.6 +0.5 86 -3 -3 по сезону 1006.9 987.8

 

Местоположение метеостанции Харьков (Харьковская область, Украина): широта 49.97 долгота 36.13 высота над уровнем моря 155 м.

В архиве по умолчанию представлена погода в Харькове за последнюю неделю. Архивные данные за месяц целиком и за предыдущие месяцы, начиная с января 2011 года, Вы можете получить, выбрав интересующий диапазон дат из раскрывающегося списка и нажав кнопку "Ввод!".

Внимание! Время в таблицах - всемирное. Для получения местного времени необходимо прибавить поправку, которая в Харькове равна 2 ч.

Смотрите также архив погоды в соседних городах и на ближайших метеорологических станциях:

Погода в Золочеве (Львовская область, Украина) (39 км)
Погода в Боходухове (Харьковская область, Украина) (50 км)
Погода в Комсомольском (Донецкая область, Украина) (50 км)
Погода в Коломаке (Харьковская область, Украина) (66 км)
Погода в Белгороде (Белгородская область, Россия) (80 км)
Погода в Краснограде (Харьковская область, Украина) (82 км)
Погода в Великом Бурлуке (Харьковская область, Украина) (90 км)
Погода в Готне (Белгородская область, Россия) (96 км)
Погода в Купянске (Харьковская область, Украина) (119 км)
Погода в Лозовой (Харьковская область, Украина) (120 км)

Пояснения к столбцам:

Ветер - указаны скорость ветра в м/с - средняя за 10 мин, порывы в срок и между сроками (в фигурных скобках) и направление, откуда дует ветер: С - северный, СВ - северо-восточный, В - восточный, ЮВ - юго-восточный, Ю - южный, ЮЗ - юго-западный, З - западный, СЗ - северо-западный.
Видимость - горизонтальная дальность видимости в метрах или километрах. При видимости от 1 до 10 км при отсутствии осадков обычно наблюдается дымка, при ухудшении видимости до 1 км и менее - туман. В сухую погоду видимость может ухудшаться дымом, пылью или мглою.
Явления - указаны атмосферные явления, наблюдавшиеся в срок или в последний час перед сроком; фигурными скобками обозначены явления, наблюдавшиеся между сроками (за 1-3 часа до срока); квадратными скобками обозначены град или гололедные отложения с указанием их диаметра в мм.
Облачность - указаны через наклонную черту общая и нижняя облачность в баллах и высота нижней границы облаков в метрах; квадратными скобками обозначены формы облаков: Ci - перистые, Cs - перисто-слоистые, Cc - перисто-кучевые, Ac - высококучевые, As - высокослоистые, Sc - слоисто-кучевые, Ns - слоисто-дождевые, Cu - кучевые, Cb - кучево-дождевые. Подробнее классификацию облаков см. в Атласе облаков (PDF).
T - Температура воздуха - температура, измеренная на высоте 2 м над землей.
Td - Температура точки росы - температура, при понижении до которой содержащийся в воздухе водяной пар достигнет насыщения.
f - Относительная влажность воздуха - влажноcть воздуха, измеренная на высоте 2 м над землей.
Te - Эффективная температура - температура, которую ощущает одетый по сезону человек в тени. Характеристика душности погоды. При расчете учитывается влияние влажности воздуха и скорости ветра на теплоощущения человека.
Tes - Эффективная температура на солнце - температура, которую ощущает человек, с поправкой на солнечный нагрев. Характеристика знойности погоды. Зависит от высоты солнца над горизонтом, облачности и скорости ветра. Ночью, в пасмурную погоду, а также при ветре 12 м/с и более поправка равна нулю.
P - Атмосферное давление - приведенное к уровню моря атмосферное давление.
Po - Атмосферное давление - измеренное на уровне метеостанции атмосферное давление.
Tmin - Минимальная температура - минимум температуры воздуха на высоте 2 м над землей.
Tmax - Максимальная температура - максимум температуры воздуха на высоте 2 м над землей.
R - Количество осадков - Количество выпавших осадков, мм. При наведении курсора мыши на число - период времени, за который выпало указанное количество осадков.
S - Снежный покров - Высота снежного покрова, см. При наведении курсора мыши на число - состояние снежного покрова и степень покрытия местности в баллах.